FW5926 Weather Reports


Display with metric or nautical units.
time (UTC)temp
F
wind
direction
speed
MPH
gust
MPH
rain 1hr
in
rain 24hr
in
rain mn
in
humidity
%
barometer
mb
20260508204105 63 273 4.0 9.0 0.00 0.00 0.00 46 1008.0
20260508203604 63 208 3.0 13.0 0.00 0.00 0.00 47 1008.1
20260508203104 63 214 3.0 13.0 0.00 0.00 0.00 48 1008.0
20260508202604 63 261 3.0 15.0 0.00 0.00 0.00 46 1008.2
20260508201604 63 171 4.0 9.0 0.00 0.00 0.00 47 1008.2
20260508201104 63 252 3.0 9.0 0.00 0.00 0.00 49 1008.2
20260508200604 63 186 3.0 9.0 0.00 0.00 0.00 48 1008.4
20260508200105 63 277 5.0 12.0 0.00 0.00 0.00 47 1008.5
20260508195604 64 264 7.0 13.0 0.00 0.00 0.00 47 1008.4
20260508195104 64 212 3.0 8.0 0.00 0.00 0.00 50 1008.5
20260508194604 63 257 3.0 13.0 0.00 0.00 0.00 48 1008.6
20260508194104 63 230 3.0 12.0 0.00 0.00 0.00 48 1008.8
20260508193604 63 281 6.0 13.0 0.00 0.00 0.00 47 1009.0
20260508193103 63 269 7.0 13.0 0.00 0.00 0.00 48 1009.0
20260508192603 63 172 5.0 8.0 0.00 0.00 0.00 51 1009.1
20260508192104 62 255 5.0 12.0 0.00 0.00 0.00 49 1009.2
20260508191604 62 230 3.0 7.0 0.00 0.00 0.00 48 1009.3
20260508191105 62 214 6.0 12.0 0.00 0.00 0.00 48 1009.4
20260508190604 62 269 4.0 7.0 0.00 0.00 0.00 48 1009.4
20260508190105 62 191 4.0 12.0 0.00 0.00 0.00 49 1009.5
20260508185105 62 285 3.0 9.0 0.00 0.00 0.00 52 1009.6
20260508184604 62 273 5.0 9.0 0.00 0.00 0.00 53 1009.7
20260508184104 62 286 3.0 12.0 0.00 0.00 0.00 53 1009.7
20260508182604 62 172 3.0 8.0 0.00 0.00 0.00 55 1009.7
20260508182104 61 226 6.0 12.0 0.00 0.00 0.00 53 1009.8
20260508181604 62 289 5.0 8.0 0.00 0.00 0.00 55 1010.0
20260508181104 61 267 6.0 9.0 0.00 0.00 0.00 57 1010.0
20260508180604 61 280 5.0 9.0 0.00 0.00 0.00 58 1009.9
20260508180104 61 154 3.0 8.0 0.00 0.00 0.00 58 1009.9
20260508175605 61 215 1.0 7.0 0.00 0.00 0.00 58 1010.0
20260508174604 61 283 2.0 6.0 0.00 0.00 0.00 60 1010.2
20260508174104 61 184 3.0 12.0 0.00 0.00 0.00 60 1010.2
20260508173604 61 153 4.0 7.0 0.00 0.00 0.00 61 1010.3
20260508173105 60 163 3.0 8.0 0.00 0.00 0.00 62 1010.1
20260508172605 60 262 5.0 9.0 0.00 0.00 0.00 61 1010.2
20260508172104 60 206 3.0 9.0 0.00 0.00 0.00 61 1010.3
20260508171604 59 145 2.0 7.0 0.00 0.00 0.00 62 1010.5
20260508171104 59 316 3.0 9.0 0.00 0.00 0.00 56 1010.6
20260508170604 59 264 6.0 9.0 0.00 0.00 0.00 55 1010.6
20260508170105 60 302 3.0 9.0 0.00 0.00 0.00 57 1010.7
20260508165605 60 270 4.0 7.0 0.00 0.00 0.00 60 1010.9
20260508165104 59 108 2.0 8.0 0.00 0.00 0.00 61 1010.9
20260508164604 59 150 2.0 8.0 0.00 0.00 0.00 60 1011.1
20260508163604 58 308 6.0 9.0 0.00 0.00 0.00 59 1011.1
20260508163104 59 341 3.0 6.0 0.00 0.00 0.00 57 1011.1
20260508162604 59 231 2.0 8.0 0.00 0.00 0.00 60 1011.2
20260508162104 59 147 5.0 10.0 0.00 0.00 0.00 61 1011.0
20260508161604 58 261 3.0 6.0 0.00 0.00 0.00 60 1011.3
20260508160605 57 229 2.0 7.0 0.00 0.00 0.00 62 1011.4
20260508160106 57 103 3.0 8.0 0.00 0.00 0.00 63 1011.4
20260508155604 57 290 2.0 3.0 0.00 0.00 0.00 62 1011.5
20260508155104 57 292 1.0 5.0 0.00 0.00 0.00 62 1011.5
20260508154604 57 314 3.0 8.0 0.00 0.00 0.00 62 1011.5
20260508154104 57 288 2.0 3.0 0.00 0.00 0.00 64 1011.6
20260508153604 57 246 5.0 12.0 0.00 0.00 0.00 67 1011.7
20260508153104 56 79 3.0 6.0 0.00 0.00 0.00 68 1011.7
20260508152604 56 34 4.0 8.0 0.00 0.00 0.00 69 1011.7
20260508152104 55 36 1.0 3.0 0.00 0.00 0.00 69 1011.7
20260508151604 55 358 2.0 5.0 0.00 0.00 0.00 69 1011.8
20260508150604 54 335 2.0 3.0 0.00 0.00 0.00 70 1012.0
20260508150104 54 329 2.0 3.0 0.00 0.00 0.00 71 1011.9
20260508145604 54 321 2.0 3.0 0.00 0.00 0.00 71 1011.9
20260508145104 54 340 2.0 5.0 0.00 0.00 0.00 70 1011.8
20260508144604 54 5 1.0 3.0 0.00 0.00 0.00 70 1011.8
20260508143604 54 2 3.0 9.0 0.00 0.00 0.00 70 1011.8
20260508143105 54 0 2.0 5.0 0.00 0.00 0.00 72 1011.7
20260508142604 54 49 1.0 3.0 0.00 0.00 0.00 72 1011.8
20260508141604 53 339 3.0 6.0 0.00 0.00 0.00 74 1011.9
20260508141104 53 323 3.0 5.0 0.00 0.00 0.00 74 1012.0
20260508140105 53 347 3.0 6.0 0.00 0.00 0.00 76 1012.0
20260508134604 51 357 3.0 6.0 0.00 0.00 0.00 80 1011.9
20260508133604 51 314 2.0 6.0 0.00 0.00 0.00 81 1011.8
20260508132604 50 277 3.0 7.0 0.00 0.00 0.00 82 1011.9
20260508131604 50 335 4.0 6.0 0.00 0.00 0.00 84 1011.9
20260508131104 49 323 1.0 3.0 0.00 0.00 0.00 84 1011.9
20260508130604 49 324 2.0 3.0 0.00 0.00 0.00 84 1011.9
20260508130106 48 272 2.0 3.0 0.00 0.00 0.00 85 1011.9
20260508125604 48 265 2.0 5.0 0.00 0.00 0.00 85 1012.0
20260508124604 48 289 2.0 5.0 0.00 0.00 0.00 85 1012.0
20260508124104 47 263 3.0 8.0 0.00 0.00 0.00 85 1012.0
20260508123604 47 261 2.0 7.0 0.00 0.00 0.00 85 1012.1
20260508123104 47 261 4.0 7.0 0.00 0.00 0.00 85 1011.9
20260508122604 47 277 3.0 6.0 0.00 0.00 0.00 86 1012.0
20260508122104 46 301 2.0 5.0 0.00 0.00 0.00 85 1011.9
20260508121604 46 275 3.0 6.0 0.00 0.00 0.00 86 1011.8
20260508121104 45 269 1.0 6.0 0.00 0.00 0.00 86 1011.8
20260508120604 45 281 2.0 3.0 0.00 0.00 0.00 86 1011.8
20260508120105 45 280 1.0 3.0 0.00 0.00 0.00 86 1011.7
20260508115604 44 280 1.0 3.0 0.00 0.00 0.00 86 1011.8
20260508115104 44 267 1.0 3.0 0.00 0.00 0.00 86 1011.8
20260508114604 44 267 1.0 2.0 0.00 0.00 0.00 86 1011.7
20260508114104 43 267 1.0 2.0 0.00 0.00 0.00 86 1011.7
20260508113604 43 267 1.0 3.0 0.00 0.00 0.00 86 1011.6
20260508113104 43 267 1.0 2.0 0.00 0.00 0.00 86 1011.6
20260508112605 43 267 0.0 1.0 0.00 0.00 0.00 86 1011.5
20260508112104 42 267 1.0 2.0 0.00 0.00 0.00 86 1011.6
20260508111604 42 267 0.0 2.0 0.00 0.00 0.00 86 1011.5
20260508111104 42 267 0.0 1.0 0.00 0.00 0.00 86 1011.5
20260508110105 42 267 0.0 1.0 0.00 0.00 0.00 86 1011.3
20260508105104 42 267 0.0 0.0 0.00 0.00 0.00 86 1011.3
20260508104105 42 267 0.0 0.0 0.00 0.00 0.00 85 1011.2
20260508103604 42 267 0.0 0.0 0.00 0.00 0.00 85 1011.2
20260508103104 42 267 0.0 0.0 0.00 0.00 0.00 86 1011.2
20260508102604 42 267 0.0 1.0 0.00 0.00 0.00 86 1011.2
20260508102104 42 267 1.0 2.0 0.00 0.00 0.00 86 1011.2
20260508101604 42 267 0.0 0.0 0.00 0.00 0.00 86 1011.2
20260508101104 42 267 0.0 0.0 0.00 0.00 0.00 86 1011.2
20260508100604 42 267 0.0 0.0 0.00 0.00 0.00 86 1011.2
20260508095605 42 267 0.0 0.0 0.00 0.00 0.00 85 1011.3
20260508095103 42 267 0.0 0.0 0.00 0.00 0.00 86 1011.3
20260508094603 42 267 0.0 2.0 0.00 0.00 0.00 86 1011.4
20260508094104 42 267 0.0 0.0 0.00 0.00 0.00 86 1011.4
20260508093604 42 267 1.0 1.0 0.00 0.00 0.00 85 1011.4
20260508093104 42 267 1.0 2.0 0.00 0.00 0.00 85 1011.3
20260508092604 42 267 0.0 1.0 0.00 0.00 0.00 86 1011.3
20260508091105 42 267 0.0 2.0 0.00 0.00 0.00 85 1011.2
20260508090604 42 267 0.0 2.0 0.00 0.00 0.00 85 1011.2
20260508090105 42 267 1.0 2.0 0.00 0.00 0.00 85 1011.3
20260508085605 42 267 0.0 1.0 0.00 0.00 0.00 85 1011.3
20260508085104 41 268 0.0 1.0 0.00 0.00 0.00 85 1011.2
20260508084604 42 268 0.0 0.0 0.00 0.00 0.00 85 1011.3
20260508084104 42 268 0.0 0.0 0.00 0.00 0.00 85 1011.3
20260508083604 42 268 0.0 0.0 0.00 0.00 0.00 85 1011.3
20260508083104 43 268 0.0 0.0 0.00 0.00 0.00 85 1011.3
20260508082604 43 268 0.0 0.0 0.00 0.00 0.00 85 1011.3
20260508082104 43 268 0.0 0.0 0.00 0.00 0.00 84 1011.3
20260508081605 43 268 0.0 0.0 0.00 0.00 0.00 84 1011.3
20260508081105 43 268 0.0 0.0 0.00 0.00 0.00 84 1011.4
20260508080605 43 268 0.0 1.0 0.00 0.00 0.00 84 1011.5
20260508080105 43 267 0.0 1.0 0.00 0.00 0.00 84 1011.4
20260508075604 44 268 0.0 0.0 0.00 0.00 0.00 84 1011.5
20260508075104 44 268 0.0 0.0 0.00 0.00 0.00 84 1011.4
20260508074604 44 268 0.0 0.0 0.00 0.00 0.00 84 1011.4
20260508074104 44 268 0.0 3.0 0.00 0.00 0.00 84 1011.4
20260508073604 44 268 1.0 3.0 0.00 0.00 0.00 84 1011.5
20260508073104 44 267 1.0 3.0 0.00 0.00 0.00 83 1011.5
20260508072604 45 267 0.0 1.0 0.00 0.00 0.00 83 1011.5
20260508072104 45 267 0.0 1.0 0.00 0.00 0.00 83 1011.5
20260508071104 45 268 0.0 3.0 0.00 0.00 0.00 83 1011.6
20260508070604 45 267 1.0 2.0 0.00 0.00 0.00 83 1011.6
20260508065605 45 274 1.0 3.0 0.00 0.00 0.00 83 1011.7
20260508065105 45 267 1.0 3.0 0.00 0.00 0.00 83 1011.7
20260508064104 45 269 1.0 3.0 0.00 0.00 0.00 83 1011.7
20260508063605 45 269 1.0 3.0 0.00 0.00 0.00 83 1011.6
20260508062604 45 269 0.0 3.0 0.00 0.00 0.00 82 1011.7
20260508062104 45 269 0.0 2.0 0.00 0.00 0.00 82 1011.7
20260508061605 45 270 1.0 3.0 0.00 0.00 0.00 82 1011.7
20260508061104 45 266 1.0 3.0 0.00 0.00 0.00 81 1011.8
20260508060604 45 267 1.0 3.0 0.00 0.00 0.00 81 1011.7
20260508060105 45 267 0.0 1.0 0.00 0.00 0.00 81 1011.7
20260508055604 45 263 1.0 2.0 0.00 0.00 0.00 81 1011.8
20260508055104 45 263 1.0 3.0 0.00 0.00 0.00 80 1011.8
20260508054604 45 263 1.0 3.0 0.00 0.00 0.00 80 1011.8
20260508054104 45 275 1.0 2.0 0.00 0.00 0.00 80 1011.8
20260508053604 46 275 1.0 3.0 0.00 0.00 0.00 80 1011.9
20260508053105 46 276 1.0 3.0 0.00 0.00 0.00 80 1012.0
20260508052604 46 274 2.0 3.0 0.00 0.00 0.00 79 1012.0
20260508052105 46 261 1.0 3.0 0.00 0.00 0.00 79 1012.0
20260508051104 46 249 1.0 2.0 0.00 0.00 0.00 78 1012.0
20260508050604 46 234 1.0 2.0 0.00 0.00 0.00 78 1011.9
20260508050104 46 231 0.0 2.0 0.00 0.00 0.00 77 1012.0
20260508045604 46 232 0.0 1.0 0.00 0.00 0.00 77 1012.0
20260508044604 46 234 0.0 2.0 0.00 0.00 0.00 76 1011.9
20260508044105 46 234 0.0 2.0 0.00 0.00 0.00 76 1011.8
20260508043605 46 234 0.0 2.0 0.00 0.00 0.00 76 1011.8
20260508042605 47 234 0.0 1.0 0.00 0.00 0.00 75 1011.7
20260508042104 47 234 0.0 1.0 0.00 0.00 0.00 74 1011.6
20260508041604 47 234 0.0 1.0 0.00 0.00 0.00 74 1011.7
20260508041105 47 234 1.0 2.0 0.00 0.00 0.00 74 1011.8
20260508040606 47 234 0.0 1.0 0.00 0.00 0.00 73 1011.8
20260508040106 47 234 0.0 1.0 0.00 0.00 0.00 73 1011.8
20260508035605 48 234 0.0 2.0 0.00 0.00 0.00 73 1011.8
20260508035104 48 235 0.0 2.0 0.00 0.00 0.00 72 1011.8
20260508034605 48 235 0.0 2.0 0.00 0.00 0.00 72 1011.8
20260508034104 48 235 0.0 1.0 0.00 0.00 0.00 71 1011.9
20260508033604 48 235 0.0 2.0 0.00 0.00 0.00 72 1012.0
20260508032104 49 244 0.0 2.0 0.00 0.00 0.00 70 1012.1
20260508031604 49 206 0.0 1.0 0.00 0.00 0.00 70 1012.1
20260508031104 49 207 1.0 3.0 0.00 0.00 0.00 69 1012.2
20260508030605 49 268 0.0 2.0 0.00 0.00 0.00 69 1012.2
20260508030106 49 268 1.0 3.0 0.00 0.00 0.00 69 1012.3
20260508025604 49 270 0.0 2.0 0.00 0.00 0.00 68 1012.3
20260508024604 50 254 2.0 3.0 0.00 0.00 0.00 68 1012.4
20260508024105 50 245 1.0 2.0 0.00 0.00 0.00 68 1012.3
20260508023605 50 222 0.0 3.0 0.00 0.00 0.00 67 1012.3
20260508023105 50 228 1.0 3.0 0.00 0.00 0.00 67 1012.2
20260508022604 50 190 1.0 5.0 0.00 0.00 0.00 67 1012.2
20260508022104 50 266 5.0 10.0 0.00 0.00 0.00 66 1012.2
20260508021605 50 242 2.0 7.0 0.00 0.00 0.00 66 1012.2
20260508021104 50 264 3.0 8.0 0.00 0.00 0.00 66 1012.1
20260508020604 50 275 2.0 5.0 0.00 0.00 0.00 66 1012.0
20260508020106 50 214 5.0 12.0 0.00 0.00 0.00 65 1012.1
20260508015605 50 148 2.0 7.0 0.00 0.00 0.00 65 1012.1
20260508014104 51 177 2.0 7.0 0.00 0.00 0.00 63 1012.1
20260508013605 51 269 3.0 12.0 0.00 0.00 0.00 62 1012.1
20260508013104 51 247 3.0 9.0 0.00 0.00 0.00 62 1012.1
20260508012604 51 209 2.0 5.0 0.00 0.00 0.00 62 1012.0
20260508012105 51 200 2.0 8.0 0.00 0.00 0.00 61 1011.9
20260508011604 51 257 3.0 9.0 0.00 0.00 0.00 60 1011.9
20260508011104 52 245 2.0 9.0 0.00 0.00 0.00 59 1011.9
20260508010604 52 290 3.0 9.0 0.00 0.00 0.00 59 1011.8
20260508005605 53 247 5.0 12.0 0.00 0.00 0.00 56 1011.8
20260508005105 53 156 3.0 8.0 0.00 0.00 0.00 55 1011.6
20260508004604 53 232 5.0 13.0 0.00 0.00 0.00 54 1011.6
20260508004105 54 161 3.0 7.0 0.00 0.00 0.00 52 1011.6
20260508003604 54 251 2.0 6.0 0.00 0.00 0.00 50 1011.5
20260508003104 54 269 3.0 9.0 0.00 0.00 0.00 49 1011.4
20260508002604 54 254 3.0 6.0 0.00 0.00 0.00 49 1011.4
20260508002104 54 276 1.0 6.0 0.00 0.00 0.00 48 1011.3
20260508001605 54 266 3.0 8.0 0.00 0.00 0.00 48 1011.3
20260508000604 54 265 3.0 12.0 0.00 0.00 0.00 47 1011.4
20260508000105 54 268 5.0 8.0 0.00 0.00 0.00 46 1011.4
20260507235604 55 283 3.0 9.0 0.00 0.00 0.00 45 1011.4
20260507235104 55 278 5.0 9.0 0.00 0.00 0.00 45 1011.4
20260507234605 55 275 8.0 12.0 0.00 0.00 0.00 45 1011.4
20260507234105 55 268 3.0 7.0 0.00 0.00 0.00 44 1011.3
20260507233604 55 266 4.0 12.0 0.00 0.00 0.00 44 1011.3
20260507232604 55 290 3.0 5.0 0.00 0.00 0.00 44 1011.2
20260507232103 55 282 5.0 10.0 0.00 0.00 0.00 43 1011.3
20260507231604 55 293 6.0 12.0 0.00 0.00 0.00 42 1011.3
20260507230104 56 316 4.0 8.0 0.00 0.00 0.00 42 1011.4
20260507225604 56 271 6.0 12.0 0.00 0.00 0.00 43 1011.4
20260507225105 55 310 5.0 8.0 0.00 0.00 0.00 44 1011.4
20260507224604 55 281 8.0 13.0 0.00 0.00 0.00 41 1011.4
20260507224103 56 299 7.0 12.0 0.00 0.00 0.00 42 1011.5
20260507223104 56 276 5.0 10.0 0.00 0.00 0.00 42 1011.5
20260507222604 56 270 5.0 9.0 0.00 0.00 0.00 42 1011.5
20260507221604 57 298 9.0 13.0 0.00 0.00 0.00 40 1011.4
20260507221104 56 301 6.0 15.0 0.00 0.00 0.00 41 1011.4
20260507220604 56 292 7.0 15.0 0.00 0.00 0.00 41 1011.5
20260507220104 56 320 6.0 10.0 0.00 0.00 0.00 42 1011.5
20260507215604 56 275 6.0 12.0 0.00 0.00 0.00 42 1011.5
20260507215105 56 295 7.0 13.0 0.00 0.00 0.00 42 1011.6
20260507214604 56 275 7.0 14.0 0.00 0.00 0.00 40 1011.6
20260507213604 56 303 6.0 14.0 0.00 0.00 0.00 41 1011.4
20260507213104 56 284 6.0 20.0 0.00 0.00 0.00 42 1011.5
20260507212604 56 320 8.0 12.0 0.00 0.00 0.00 43 1011.5
20260507212104 55 303 5.0 10.0 0.00 0.00 0.00 43 1011.5
20260507211604 55 282 8.0 12.0 0.00 0.00 0.00 41 1011.7
20260507211104 56 280 7.0 15.0 0.00 0.00 0.00 41 1011.6
20260507210603 56 310 7.0 16.0 0.00 0.00 0.00 42 1011.6
20260507205605 55 279 8.0 15.0 0.00 0.00 0.00 43 1011.7
20260507205104 55 297 3.0 9.0 0.00 0.00 0.00 42 1011.7
20260507204604 55 282 6.0 15.0 0.00 0.00 0.00 42 1012.0